Date String (YYYY-MM-DD hh:mm:ss) UTC,Instrument flags,Ambient pressure (hPa),Sample flow (lpm),Bypass flow (lpm),Sample temperature (°C),Ambient temperature (°C),ASC tube jacket temperature (°C),LED temperature (°C),Box temperature (°C),Sample RH (%),Span deviation,Mass concentration (μg/m³),Mass concentration (μg/m³),Mass concentration (μg/m³)
DateTimeUTC,F1_M11,P_M11,Q1_M11,Q2_M11,T1_M11,T2_M11,T3_M11,T4_M11,T5_M11,U1_M11,ZSPAN_M11,X0_M11,X2_M11,X1_M11
2021-09-30 12:00:00,,0833.7,5.01,0.00,27.5,26.7,00.0,36.6,29.3,23.9,0000.0,0009.88,0006.14,0005.65
2021-09-30 12:01:00,,0833.7,4.99,0.00,27.5,26.7,00.0,36.6,29.3,23.9,0000.0,0010.10,0006.13,0005.61
2021-09-30 12:02:00,,0833.7,5.01,0.00,27.5,26.7,00.0,36.6,29.3,23.9,0000.0,0010.02,0006.06,0005.57
2021-09-30 12:03:00,,0833.8,5.01,0.00,27.5,26.7,00.0,36.6,29.3,23.9,0000.0,0009.90,0006.02,0005.53
2021-09-30 12:04:00,,0833.8,4.99,0.00,27.5,26.7,00.0,36.6,29.3,23.9,0000.0,0009.92,0006.01,0005.50
2021-09-30 12:05:00,,0833.9,5.00,0.00,27.5,26.7,00.0,36.6,29.3,23.8,0000.0,0009.87,0005.98,0005.47
2021-09-30 12:06:00,,0833.9,5.00,0.00,27.5,26.7,00.0,36.6,29.3,23.8,0000.0,0009.75,0005.94,0005.43
2021-09-30 12:07:00,,0833.9,5.00,0.00,27.5,26.6,00.0,36.5,29.3,23.9,0000.0,0009.59,0005.93,0005.39
2021-09-30 12:08:00,,0833.9,5.00,0.00,27.4,26.6,00.0,36.5,29.2,23.9,0000.0,0009.25,0005.90,0005.37
2021-09-30 12:09:00,,0833.9,5.01,0.00,27.4,26.6,00.0,36.5,29.2,24.0,0000.0,0009.08,0005.88,0005.33
2021-09-30 12:10:00,,0833.9,5.01,0.00,27.4,26.6,00.0,36.5,29.2,24.0,0000.0,0009.18,0005.90,0005.32
2021-09-30 12:11:00,,0834.0,5.00,0.00,27.4,26.6,00.0,36.5,29.2,24.0,0000.0,0008.91,0005.87,0005.29
2021-09-30 12:12:00,,0834.0,5.00,0.00,27.3,26.6,00.0,36.5,29.2,24.0,0000.0,0008.85,0005.81,0005.27
2021-09-30 12:13:00,,0833.9,5.00,0.00,27.3,26.5,00.0,36.5,29.1,24.0,0000.0,0009.04,0005.78,0005.25
2021-09-30 12:14:00,,0833.9,4.98,0.00,27.3,26.5,00.0,36.5,29.1,24.0,0000.0,0009.04,0005.75,0005.22
2021-09-30 12:15:00,,0833.9,5.00,0.00,27.3,26.6,00.0,36.5,29.1,23.9,0000.0,0009.04,0005.73,0005.20
2021-09-30 12:16:00,,0833.9,5.00,0.00,27.3,26.6,00.0,36.4,29.1,23.9,0000.0,0009.17,0005.75,0005.18
2021-09-30 12:17:00,,0833.8,5.01,0.00,27.3,26.6,00.0,36.4,29.1,23.9,0000.0,0009.21,0005.75,0005.18
2021-09-30 12:18:00,,0833.8,4.99,0.00,27.3,26.6,00.0,36.4,29.1,23.9,0000.0,0009.24,0005.76,0005.17
2021-09-30 12:19:00,,0833.8,5.01,0.00,27.3,26.6,00.0,36.4,29.2,23.9,0000.0,0009.24,0005.71,0005.15
2021-09-30 12:20:00,,0833.8,5.00,0.00,27.3,26.6,00.0,36.4,29.1,23.9,0000.0,0009.60,0005.72,0005.13
2021-09-30 12:21:00,,0833.8,5.00,0.00,27.3,26.6,00.0,36.4,29.2,23.9,0000.0,0009.48,0005.66,0005.10
2021-09-30 12:22:00,,0833.8,5.00,0.00,27.4,26.6,00.0,36.4,29.2,23.9,0000.0,0009.34,0005.62,0005.08
2021-09-30 12:23:00,,0833.8,4.99,0.00,27.4,26.7,00.0,36.4,29.2,23.8,0000.0,0009.23,0005.60,0005.06
2021-09-30 12:24:00,,0833.9,5.01,0.00,27.4,26.7,00.0,36.5,29.2,23.8,0000.0,0008.87,0005.57,0005.05
2021-09-30 12:25:00,,0833.9,4.99,0.00,27.4,26.7,00.0,36.5,29.3,23.8,0000.0,0008.88,0005.58,0005.04
2021-09-30 12:26:00,,0833.8,5.00,0.00,27.5,26.7,00.0,36.5,29.3,23.7,0000.0,0008.90,0005.58,0005.04
2021-09-30 12:27:00,,0833.8,5.00,0.00,27.5,26.7,00.0,36.5,29.3,23.6,0000.0,0008.80,0005.52,0005.01
2021-09-30 12:28:00,,0833.8,5.00,0.00,27.5,26.7,00.0,36.5,29.3,23.6,0000.0,0008.70,0005.47,0004.98
2021-09-30 12:29:00,,0833.9,5.00,0.00,27.5,26.8,00.0,36.5,29.4,23.5,0000.0,0008.62,0005.42,0004.95
2021-09-30 12:30:00,,0833.9,5.00,0.00,27.5,26.8,00.0,36.5,29.4,23.5,0000.0,0008.49,0005.38,0004.92
2021-09-30 12:31:00,,0833.8,4.99,0.00,27.5,26.8,00.0,36.5,29.3,23.5,0000.0,0008.06,0005.35,0004.90
2021-09-30 12:32:00,,0833.9,5.01,0.00,27.5,26.8,00.0,36.5,29.3,23.6,0000.0,0008.18,0005.30,0004.87
2021-09-30 12:33:00,,0833.9,5.01,0.00,27.5,26.8,00.0,36.6,29.4,24.0,0000.0,0008.15,0005.27,0004.85
2021-09-30 12:34:00,,0833.9,4.99,0.00,27.5,26.7,00.0,36.6,29.3,24.3,0000.0,0008.30,0005.23,0004.82
2021-09-30 12:35:00,,0833.9,5.00,0.00,27.5,26.7,00.0,36.5,29.3,23.7,0000.0,0008.32,0005.21,0004.77
2021-09-30 12:36:00,,0833.9,5.01,0.00,27.5,26.7,00.0,36.6,29.3,23.7,0000.0,0008.28,0005.16,0004.73
2021-09-30 12:37:00,,0833.9,5.01,0.00,27.4,26.7,00.0,36.6,29.3,23.5,0000.0,0008.31,0005.12,0004.69
2021-09-30 12:38:00,,0833.9,5.00,0.00,27.4,26.7,00.0,36.5,29.3,23.4,0000.0,0008.33,0005.09,0004.65
2021-09-30 12:39:00,,0833.9,5.00,0.00,27.4,26.7,00.0,36.5,29.3,23.4,0000.0,0008.33,0005.06,0004.61
2021-09-30 12:40:00,,0833.9,5.01,0.00,27.4,26.7,00.0,36.5,29.3,23.4,0000.0,0008.26,0005.00,0004.56
2021-09-30 12:41:00,,0833.9,5.00,0.00,27.4,26.7,00.0,36.5,29.3,23.4,0000.0,0008.24,0004.95,0004.52
2021-09-30 12:42:00,,0833.9,5.00,0.00,27.4,26.7,00.0,36.5,29.3,23.5,0000.0,0008.16,0004.90,0004.47
2021-09-30 12:43:00,,0833.9,4.99,0.00,27.4,26.7,00.0,36.5,29.2,23.4,0000.0,0007.96,0004.84,0004.41
2021-09-30 12:44:00,,0834.0,4.99,0.00,27.4,26.7,00.0,36.5,29.3,23.3,0000.0,0007.86,0004.76,0004.35
2021-09-30 12:45:00,,0834.0,4.99,0.00,27.4,26.7,00.0,36.5,29.3,23.3,0000.0,0007.57,0004.69,0004.28
2021-09-30 12:46:00,,0834.0,5.01,0.00,27.4,26.7,00.0,36.5,29.3,23.3,0000.0,0007.42,0004.63,0004.24
2021-09-30 12:47:00,,0834.0,4.99,0.00,27.4,26.7,00.0,36.5,29.3,23.3,0000.0,0007.34,0004.57,0004.20
2021-09-30 12:48:00,,0834.0,5.01,0.00,27.4,26.7,00.0,36.5,29.3,23.3,0000.0,0007.12,0004.52,0004.16
2021-09-30 12:49:00,,0834.0,5.01,0.00,27.4,26.7,00.0,36.5,29.3,23.3,0000.0,0006.84,0004.46,0004.13
2021-09-30 12:50:00,,0834.0,4.99,0.00,27.4,26.7,00.0,36.5,29.2,23.2,0000.0,0006.73,0004.42,0004.10
2021-09-30 12:51:00,,0834.0,4.99,0.00,27.4,26.7,00.0,36.5,29.2,23.2,0000.0,0006.62,0004.38,0004.08
2021-09-30 12:52:00,,0834.0,5.01,0.00,27.4,26.6,00.0,36.5,29.2,23.2,0000.0,0006.64,0004.37,0004.06
2021-09-30 12:53:00,,0834.0,5.00,0.00,27.4,26.6,00.0,36.5,29.2,23.2,0000.0,0006.73,0004.34,0004.03
2021-09-30 12:54:00,,0834.0,5.00,0.00,27.4,26.6,00.0,36.5,29.2,23.1,-000.1,0007.04,0004.34,0004.02
2021-09-30 12:55:00,,0834.0,5.01,0.00,27.4,26.6,00.0,36.5,29.2,23.2,-000.3,0007.29,0004.38,0004.03
2021-09-30 12:56:00,,0834.0,5.00,0.00,27.3,26.6,00.0,36.5,29.1,23.2,-000.8,0007.38,0004.40,0004.03
2021-09-30 12:57:00,,0834.0,4.99,0.00,27.3,26.5,00.0,36.4,29.1,23.2,-001.1,0007.43,0004.41,0004.03
2021-09-30 12:58:00,,0834.0,4.99,0.00,27.3,26.5,00.0,36.4,29.0,23.2,0000.0,0007.39,0004.41,0004.04
2021-09-30 12:59:00,,0834.0,5.00,0.00,27.3,26.4,00.0,36.4,29.0,23.3,0000.0,0007.37,0004.40,0004.05
